| time (UTC) | temp F | wind direction | speed MPH | gust MPH | rain 1hr in | rain 24hr in | rain mn in | humidity % | barometer mb |
| 20260502130734 | 47 | 249 | 2.0 | 5.0 | 0.00 | 0.00 | 0.00 | 55 | 1013.6 |
| 20260502130231 | 48 | 226 | 2.0 | 3.0 | 0.00 | 0.00 | 0.00 | 57 | 1013.4 |
| 20260502123717 | 44 | 262 | 2.0 | 6.0 | 0.00 | 0.00 | 0.00 | 58 | 1013.7 |
| 20260502123214 | 43 | 355 | 0.0 | 6.0 | 0.00 | 0.00 | 0.00 | 60 | 1013.7 |
| 20260502122710 | 43 | 357 | 1.0 | 6.0 | 0.00 | 0.00 | 0.00 | 60 | 1013.8 |
| 20260502122207 | 42 | 235 | 0.0 | 4.0 | 0.00 | 0.00 | 0.00 | 60 | 1013.8 |
| 20260502121705 | 42 | 291 | 3.0 | 6.0 | 0.00 | 0.00 | 0.00 | 60 | 1013.8 |
| 20260502121203 | 41 | 354 | 2.0 | 5.0 | 0.00 | 0.00 | 0.00 | 61 | 1013.7 |
| 20260502120659 | 41 | 4 | 1.0 | 5.0 | 0.00 | 0.00 | 0.00 | 62 | 1013.6 |
| 20260502120156 | 40 | 276 | 2.0 | 6.0 | 0.00 | 0.00 | 0.00 | 64 | 1013.6 |
| 20260502115654 | 38 | 282 | 0.0 | 5.0 | 0.00 | 0.00 | 0.00 | 66 | 1013.5 |
| 20260502115149 | 37 | 256 | 1.0 | 6.0 | 0.00 | 0.00 | 0.00 | 68 | 1013.7 |
| 20260502114646 | 37 | 294 | 3.0 | 6.0 | 0.00 | 0.00 | 0.00 | 67 | 1013.5 |
| 20260502114143 | 37 | 104 | 1.0 | 4.0 | 0.00 | 0.00 | 0.00 | 67 | 1013.5 |
| 20260502113641 | 37 | 174 | 0.0 | 7.0 | 0.00 | 0.00 | 0.00 | 67 | 1013.6 |
| 20260502113139 | 37 | 287 | 0.0 | 4.0 | 0.00 | 0.00 | 0.00 | 68 | 1013.5 |
| 20260502112636 | 35 | 85 | 2.0 | 6.0 | 0.00 | 0.00 | 0.00 | 70 | 1013.6 |
| 20260502112134 | 35 | 53 | 0.0 | 3.0 | 0.00 | 0.00 | 0.00 | 72 | 1013.7 |
| 20260502111631 | 34 | 273 | 0.0 | 5.0 | 0.00 | 0.00 | 0.00 | 72 | 1013.5 |
| 20260502111128 | 34 | 329 | 1.0 | 5.0 | 0.00 | 0.00 | 0.00 | 72 | 1013.6 |
| 20260502110620 | 34 | 276 | 2.0 | 6.0 | 0.00 | 0.00 | 0.00 | 73 | 1013.4 |
| 20260502110117 | 34 | 243 | 0.0 | 3.0 | 0.00 | 0.00 | 0.00 | 73 | 1013.6 |
| 20260502105615 | 33 | 295 | 1.0 | 3.0 | 0.00 | 0.00 | 0.00 | 74 | 1013.3 |
| 20260502105112 | 33 | 337 | 1.0 | 2.0 | 0.00 | 0.00 | 0.00 | 75 | 1013.4 |
| 20260502104609 | 33 | 171 | 1.0 | 4.0 | 0.00 | 0.00 | 0.00 | 75 | 1013.5 |
| 20260502104106 | 33 | 356 | 0.0 | 3.0 | 0.00 | 0.00 | 0.00 | 75 | 1013.5 |
| 20260502103604 | 34 | 197 | 0.0 | 3.0 | 0.00 | 0.00 | 0.00 | 73 | 1013.4 |
| 20260502103102 | 34 | 262 | 3.0 | 4.0 | 0.00 | 0.00 | 0.00 | 73 | 1013.4 |
| 20260502102557 | 34 | 339 | 0.0 | 4.0 | 0.00 | 0.00 | 0.00 | 73 | 1013.4 |
| 20260502102055 | 34 | 252 | 0.0 | 5.0 | 0.00 | 0.00 | 0.00 | 73 | 1013.4 |
| 20260502101553 | 34 | 280 | 0.0 | 4.0 | 0.00 | 0.00 | 0.00 | 72 | 1013.6 |
| 20260502101051 | 35 | 255 | 2.0 | 5.0 | 0.00 | 0.00 | 0.00 | 72 | 1013.7 |
| 20260502100549 | 35 | 227 | 1.0 | 3.0 | 0.00 | 0.00 | 0.00 | 72 | 1013.6 |
| 20260502091524 | 35 | 257 | 0.0 | 2.0 | 0.00 | 0.00 | 0.00 | 70 | 1013.6 |
| 20260502091021 | 36 | 240 | 1.0 | 1.0 | 0.00 | 0.00 | 0.00 | 70 | 1013.5 |
| 20260502090518 | 36 | 217 | 0.0 | 2.0 | 0.00 | 0.00 | 0.00 | 70 | 1013.4 |
| 20260502071407 | 37 | 220 | 1.0 | 3.0 | 0.00 | 0.00 | 0.00 | 66 | 1013.7 |
| 20260502070905 | 37 | 225 | 1.0 | 3.0 | 0.00 | 0.00 | 0.00 | 67 | 1013.7 |
| 20260502070402 | 37 | 323 | 0.0 | 2.0 | 0.00 | 0.00 | 0.00 | 67 | 1013.7 |
| 20260502065901 | 37 | 293 | 1.0 | 2.0 | 0.00 | 0.00 | 0.00 | 66 | 1013.9 |
| 20260502065359 | 37 | 244 | 0.0 | 2.0 | 0.00 | 0.00 | 0.00 | 68 | 1013.9 |
| 20260502064856 | 36 | 49 | 0.0 | 1.0 | 0.00 | 0.00 | 0.00 | 69 | 1013.7 |
| 20260502064354 | 36 | 267 | 0.0 | 2.0 | 0.00 | 0.00 | 0.00 | 69 | 1013.8 |
| 20260502063851 | 36 | 345 | 0.0 | 2.0 | 0.00 | 0.00 | 0.00 | 70 | 1014.1 |
| 20260502063349 | 36 | 337 | 2.0 | 2.0 | 0.00 | 0.00 | 0.00 | 70 | 1013.8 |
| 20260502062846 | 36 | 310 | 0.0 | 2.0 | 0.00 | 0.00 | 0.00 | 68 | 1013.8 |
| 20260502062343 | 37 | 269 | 0.0 | 2.0 | 0.00 | 0.00 | 0.00 | 69 | 1014.0 |
| 20260502061842 | 37 | 282 | 1.0 | 2.0 | 0.00 | 0.00 | 0.00 | 69 | 1014.0 |
| 20260502061339 | 36 | 273 | 1.0 | 2.0 | 0.00 | 0.00 | 0.00 | 71 | 1014.0 |
| 20260502060835 | 36 | 350 | 0.0 | 1.0 | 0.00 | 0.00 | 0.00 | 71 | 1014.0 |
| 20260502060330 | 35 | 25 | 0.0 | 3.0 | 0.00 | 0.00 | 0.00 | 73 | 1014.1 |
| 20260502055828 | 36 | 0 | 0.0 | 2.0 | 0.00 | 0.00 | 0.00 | 70 | 1014.0 |
| 20260502055326 | 37 | 346 | 0.0 | 2.0 | 0.00 | 0.00 | 0.00 | 67 | 1013.9 |
| 20260502054825 | 38 | 297 | 0.0 | 2.0 | 0.00 | 0.00 | 0.00 | 66 | 1013.8 |
| 20260502054323 | 38 | 208 | 1.0 | 2.0 | 0.00 | 0.00 | 0.00 | 67 | 1013.7 |
| 20260502053820 | 38 | 258 | 1.0 | 2.0 | 0.00 | 0.00 | 0.00 | 67 | 1013.9 |
| 20260502053317 | 38 | 259 | 0.0 | 2.0 | 0.00 | 0.00 | 0.00 | 66 | 1013.9 |
| 20260502052815 | 37 | 290 | 0.0 | 1.0 | 0.00 | 0.00 | 0.00 | 66 | 1013.8 |
| 20260502052312 | 37 | 254 | 0.0 | 1.0 | 0.00 | 0.00 | 0.00 | 66 | 1013.8 |
| 20260502051810 | 38 | 224 | 0.0 | 1.0 | 0.00 | 0.00 | 0.00 | 66 | 1013.8 |
| 20260502051309 | 38 | 255 | 1.0 | 2.0 | 0.00 | 0.00 | 0.00 | 66 | 1013.7 |
| 20260502050804 | 38 | 321 | 0.0 | 2.0 | 0.00 | 0.00 | 0.00 | 66 | 1013.8 |
| 20260502050301 | 38 | 304 | 0.0 | 1.0 | 0.00 | 0.00 | 0.00 | 66 | 1013.7 |
| 20260502045758 | 38 | 184 | 0.0 | 1.0 | 0.00 | 0.00 | 0.00 | 66 | 1013.7 |
| 20260502045255 | 39 | 149 | 0.0 | 1.0 | 0.00 | 0.00 | 0.00 | 65 | 1013.9 |
| 20260502044752 | 39 | 203 | 0.0 | 2.0 | 0.00 | 0.00 | 0.00 | 64 | 1013.7 |
| 20260502044248 | 39 | 197 | 0.0 | 2.0 | 0.00 | 0.00 | 0.00 | 63 | 1013.8 |
| 20260502043745 | 39 | 193 | 0.0 | 1.0 | 0.00 | 0.00 | 0.00 | 62 | 1013.8 |
| 20260502043243 | 39 | 197 | 0.0 | 2.0 | 0.00 | 0.00 | 0.00 | 62 | 1013.6 |
| 20260502042742 | 39 | 171 | 0.0 | 1.0 | 0.00 | 0.00 | 0.00 | 64 | 1013.8 |
| 20260502042240 | 39 | 279 | 0.0 | 1.0 | 0.00 | 0.00 | 0.00 | 62 | 1013.7 |
| 20260502041737 | 39 | 234 | 0.0 | 2.0 | 0.00 | 0.00 | 0.00 | 62 | 1013.7 |
| 20260502041234 | 38 | 286 | 0.0 | 2.0 | 0.00 | 0.00 | 0.00 | 63 | 1013.8 |
| 20260502040731 | 36 | 287 | 0.0 | 2.0 | 0.00 | 0.00 | 0.00 | 69 | 1013.9 |
| 20260502040228 | 36 | 9 | 0.0 | 1.0 | 0.00 | 0.00 | 0.00 | 68 | 1013.7 |
| 20260502035724 | 37 | 311 | 0.0 | 2.0 | 0.00 | 0.00 | 0.00 | 67 | 1013.7 |
| 20260502035221 | 37 | 325 | 0.0 | 2.0 | 0.00 | 0.00 | 0.00 | 67 | 1013.7 |
| 20260502034718 | 37 | 325 | 0.0 | 2.0 | 0.00 | 0.00 | 0.00 | 67 | 1013.9 |
| 20260502034217 | 37 | 13 | 0.0 | 0.0 | 0.00 | 0.00 | 0.00 | 67 | 1013.8 |
| 20260502033714 | 37 | 326 | 0.0 | 1.0 | 0.00 | 0.00 | 0.00 | 67 | 1013.9 |
| 20260502033212 | 38 | 359 | 1.0 | 2.0 | 0.00 | 0.00 | 0.00 | 66 | 1013.9 |
| 20260502032708 | 38 | 4 | 1.0 | 2.0 | 0.00 | 0.00 | 0.00 | 64 | 1013.7 |
| 20260502032204 | 39 | 338 | 1.0 | 1.0 | 0.00 | 0.00 | 0.00 | 62 | 1013.7 |
| 20260502031702 | 39 | 336 | 0.0 | 1.0 | 0.00 | 0.00 | 0.00 | 62 | 1013.7 |
| 20260502031200 | 40 | 345 | 1.0 | 2.0 | 0.00 | 0.00 | 0.00 | 61 | 1013.9 |
| 20260502030659 | 39 | 339 | 1.0 | 3.0 | 0.00 | 0.00 | 0.00 | 60 | 1013.7 |
| 20260502030156 | 39 | 334 | 0.0 | 1.0 | 0.00 | 0.00 | 0.00 | 62 | 1013.8 |
| 20260502025653 | 38 | 325 | 0.0 | 1.0 | 0.00 | 0.00 | 0.00 | 61 | 1013.9 |
| 20260502025151 | 39 | 19 | 0.0 | 1.0 | 0.00 | 0.00 | 0.00 | 60 | 1013.7 |
| 20260502024649 | 40 | 304 | 0.0 | 1.0 | 0.00 | 0.00 | 0.00 | 58 | 1013.9 |
| 20260502024147 | 41 | 19 | 0.0 | 2.0 | 0.00 | 0.00 | 0.00 | 55 | 1013.6 |
| 20260502023644 | 41 | 326 | 0.0 | 2.0 | 0.00 | 0.00 | 0.00 | 53 | 1013.7 |
| 20260502023141 | 40 | 312 | 2.0 | 2.0 | 0.00 | 0.00 | 0.00 | 55 | 1013.5 |
| 20260502022638 | 39 | 327 | 0.0 | 2.0 | 0.00 | 0.00 | 0.00 | 57 | 1013.8 |
| 20260502022135 | 40 | 304 | 0.0 | 1.0 | 0.00 | 0.00 | 0.00 | 56 | 1013.6 |
| 20260502021633 | 41 | 315 | 0.0 | 2.0 | 0.00 | 0.00 | 0.00 | 56 | 1013.6 |
| 20260502021130 | 42 | 318 | 0.0 | 2.0 | 0.00 | 0.00 | 0.00 | 53 | 1013.5 |
| 20260502020627 | 43 | 295 | 0.0 | 2.0 | 0.00 | 0.00 | 0.00 | 52 | 1013.4 |
| 20260502020123 | 43 | 249 | 0.0 | 2.0 | 0.00 | 0.00 | 0.00 | 50 | 1013.5 |
| 20260502015622 | 44 | 262 | 0.0 | 2.0 | 0.00 | 0.00 | 0.00 | 49 | 1013.5 |
| 20260502015118 | 45 | 297 | 0.0 | 2.0 | 0.00 | 0.00 | 0.00 | 50 | 1013.6 |
| 20260502014615 | 46 | 304 | 0.0 | 2.0 | 0.00 | 0.00 | 0.00 | 45 | 1013.2 |
| 20260502014112 | 46 | 347 | 1.0 | 2.0 | 0.00 | 0.00 | 0.00 | 45 | 1013.2 |
| 20260502013608 | 47 | 353 | 2.0 | 3.0 | 0.00 | 0.00 | 0.00 | 44 | 1013.4 |
| 20260502013104 | 47 | 348 | 2.0 | 5.0 | 0.00 | 0.00 | 0.00 | 43 | 1013.2 |
| 20260502012602 | 47 | 349 | 0.0 | 3.0 | 0.00 | 0.00 | 0.00 | 43 | 1013.2 |
| 20260502012059 | 47 | 347 | 0.0 | 4.0 | 0.00 | 0.00 | 0.00 | 44 | 1013.1 |
| 20260502011555 | 47 | 341 | 3.0 | 5.0 | 0.00 | 0.00 | 0.00 | 44 | 1013.2 |
| 20260502011052 | 47 | 344 | 2.0 | 3.0 | 0.00 | 0.00 | 0.00 | 44 | 1013.2 |
| 20260502010549 | 47 | 345 | 2.0 | 3.0 | 0.00 | 0.00 | 0.00 | 44 | 1013.1 |
| 20260502010045 | 47 | 3 | 1.0 | 3.0 | 0.00 | 0.00 | 0.00 | 44 | 1013.0 |
| 20260502005543 | 48 | 348 | 3.0 | 3.0 | 0.00 | 0.00 | 0.00 | 44 | 1013.1 |
| 20260502005041 | 48 | 6 | 3.0 | 6.0 | 0.00 | 0.00 | 0.00 | 44 | 1013.1 |
| 20260502004536 | 48 | 349 | 2.0 | 5.0 | 0.00 | 0.00 | 0.00 | 43 | 1013.1 |
| 20260502004033 | 48 | 340 | 2.0 | 7.0 | 0.00 | 0.00 | 0.00 | 43 | 1012.9 |
| 20260502003531 | 48 | 353 | 3.0 | 8.0 | 0.00 | 0.00 | 0.00 | 41 | 1013.0 |
| 20260502003028 | 48 | 7 | 2.0 | 5.0 | 0.00 | 0.00 | 0.00 | 42 | 1012.9 |
| 20260502002524 | 49 | 0 | 3.0 | 6.0 | 0.00 | 0.00 | 0.00 | 41 | 1013.0 |
| 20260502002021 | 49 | 344 | 5.0 | 11.0 | 0.00 | 0.00 | 0.00 | 39 | 1013.0 |
| 20260502001519 | 50 | 359 | 4.0 | 9.0 | 0.00 | 0.00 | 0.00 | 38 | 1012.7 |
| 20260502001016 | 50 | 328 | 6.0 | 11.0 | 0.00 | 0.00 | 0.00 | 36 | 1012.8 |
| 20260502000515 | 50 | 28 | 5.0 | 8.0 | 0.00 | 0.00 | 0.00 | 38 | 1012.8 |
| 20260502000011 | 50 | 25 | 6.0 | 11.0 | 0.00 | 0.00 | 0.00 | 37 | 1013.1 |
| 20260501235507 | 49 | 13 | 5.0 | 9.0 | 0.00 | 0.00 | 0.00 | 38 | 1012.8 |
| 20260501235003 | 49 | 8 | 3.0 | 5.0 | 0.00 | 0.00 | 0.00 | 40 | 1012.9 |
| 20260501234458 | 49 | 1 | 3.0 | 7.0 | 0.00 | 0.00 | 0.00 | 41 | 1012.8 |
| 20260501233957 | 49 | 0 | 5.0 | 10.0 | 0.00 | 0.00 | 0.00 | 37 | 1012.9 |
| 20260501233455 | 50 | 326 | 7.0 | 10.0 | 0.00 | 0.00 | 0.00 | 37 | 1012.7 |
| 20260501232950 | 50 | 6 | 4.0 | 17.0 | 0.00 | 0.00 | 0.00 | 37 | 1012.6 |
| 20260501232448 | 50 | 348 | 5.0 | 8.0 | 0.00 | 0.00 | 0.00 | 37 | 1012.7 |
| 20260501231944 | 51 | 16 | 6.0 | 9.0 | 0.00 | 0.00 | 0.00 | 36 | 1012.8 |
| 20260501231443 | 51 | 10 | 9.0 | 14.0 | 0.00 | 0.00 | 0.00 | 36 | 1012.7 |
| 20260501230941 | 51 | 4 | 7.0 | 13.0 | 0.00 | 0.00 | 0.00 | 35 | 1012.9 |
| 20260501230440 | 53 | 344 | 4.0 | 13.0 | 0.00 | 0.00 | 0.00 | 36 | 1012.7 |
| 20260501225937 | 51 | 23 | 3.0 | 9.0 | 0.00 | 0.00 | 0.00 | 35 | 1012.6 |
| 20260501225434 | 52 | 344 | 6.0 | 11.0 | 0.00 | 0.00 | 0.00 | 37 | 1012.8 |
| 20260501224930 | 51 | 15 | 4.0 | 11.0 | 0.00 | 0.00 | 0.00 | 38 | 1012.6 |
| 20260501224427 | 49 | 34 | 4.0 | 10.0 | 0.00 | 0.00 | 0.00 | 37 | 1012.8 |
| 20260501223924 | 50 | 2 | 3.0 | 12.0 | 0.00 | 0.00 | 0.00 | 38 | 1012.7 |
| 20260501223421 | 49 | 20 | 4.0 | 12.0 | 0.00 | 0.00 | 0.00 | 38 | 1012.7 |
| 20260501222916 | 49 | 25 | 3.0 | 12.0 | 0.00 | 0.00 | 0.00 | 40 | 1012.7 |
| 20260501222414 | 50 | 4 | 4.0 | 14.0 | 0.00 | 0.00 | 0.00 | 40 | 1012.6 |
| 20260501221910 | 50 | 14 | 7.0 | 13.0 | 0.00 | 0.00 | 0.00 | 37 | 1012.7 |
| 20260501221408 | 51 | 356 | 8.0 | 12.0 | 0.00 | 0.00 | 0.00 | 37 | 1012.5 |
| 20260501220905 | 51 | 14 | 3.0 | 8.0 | 0.00 | 0.00 | 0.00 | 38 | 1012.6 |
| 20260501220403 | 50 | 359 | 5.0 | 10.0 | 0.00 | 0.00 | 0.00 | 37 | 1012.7 |
| 20260501215858 | 51 | 341 | 5.0 | 15.0 | 0.00 | 0.00 | 0.00 | 37 | 1012.7 |
| 20260501215355 | 51 | 323 | 5.0 | 13.0 | 0.00 | 0.00 | 0.00 | 35 | 1012.7 |
| 20260501214850 | 51 | 8 | 6.0 | 13.0 | 0.00 | 0.00 | 0.00 | 37 | 1012.8 |
| 20260501214346 | 50 | 35 | 7.0 | 16.0 | 0.00 | 0.00 | 0.00 | 39 | 1012.7 |
| 20260501213842 | 50 | 354 | 6.0 | 14.0 | 0.00 | 0.00 | 0.00 | 38 | 1012.6 |
| 20260501213339 | 52 | 59 | 7.0 | 18.0 | 0.00 | 0.00 | 0.00 | 36 | 1012.5 |
| 20260501212834 | 53 | 338 | 4.0 | 11.0 | 0.00 | 0.00 | 0.00 | 36 | 1012.9 |
| 20260501212331 | 51 | 343 | 3.0 | 13.0 | 0.00 | 0.00 | 0.00 | 34 | 1012.6 |
| 20260501211828 | 52 | 303 | 2.0 | 15.0 | 0.00 | 0.00 | 0.00 | 36 | 1012.6 |
| 20260501211325 | 52 | 68 | 3.0 | 9.0 | 0.00 | 0.00 | 0.00 | 35 | 1012.4 |
| 20260501210817 | 52 | 6 | 5.0 | 9.0 | 0.00 | 0.00 | 0.00 | 35 | 1012.7 |
| 20260501210314 | 51 | 29 | 6.0 | 14.0 | 0.00 | 0.00 | 0.00 | 36 | 1012.6 |
| 20260501205810 | 50 | 357 | 3.0 | 11.0 | 0.00 | 0.00 | 0.00 | 37 | 1012.6 |
| 20260501205307 | 52 | 324 | 10.0 | 15.0 | 0.00 | 0.00 | 0.00 | 35 | 1012.5 |
| 20260501204804 | 52 | 5 | 5.0 | 10.0 | 0.00 | 0.00 | 0.00 | 37 | 1012.7 |
| 20260501204301 | 53 | 42 | 4.0 | 9.0 | 0.00 | 0.00 | 0.00 | 35 | 1012.8 |
| 20260501203757 | 52 | 1 | 8.0 | 15.0 | 0.00 | 0.00 | 0.00 | 36 | 1012.5 |
| 20260501203254 | 53 | 29 | 9.0 | 14.0 | 0.00 | 0.00 | 0.00 | 36 | 1012.7 |
| 20260501202751 | 53 | 63 | 3.0 | 11.0 | 0.00 | 0.00 | 0.00 | 37 | 1012.6 |
| 20260501202248 | 51 | 55 | 5.0 | 10.0 | 0.00 | 0.00 | 0.00 | 35 | 1012.8 |
| 20260501201745 | 52 | 27 | 11.0 | 12.0 | 0.00 | 0.00 | 0.00 | 37 | 1012.8 |
| 20260501201242 | 53 | 35 | 7.0 | 15.0 | 0.00 | 0.00 | 0.00 | 35 | 1012.9 |
| 20260501200738 | 52 | 133 | 2.0 | 10.0 | 0.00 | 0.00 | 0.00 | 38 | 1012.7 |
| 20260501200235 | 52 | 20 | 6.0 | 13.0 | 0.00 | 0.00 | 0.00 | 38 | 1012.9 |
| 20260501195733 | 53 | 271 | 5.0 | 9.0 | 0.00 | 0.00 | 0.00 | 37 | 1012.9 |
| 20260501195228 | 51 | 47 | 4.0 | 13.0 | 0.00 | 0.00 | 0.00 | 36 | 1012.8 |
| 20260501194725 | 51 | 5 | 7.0 | 15.0 | 0.00 | 0.00 | 0.00 | 37 | 1012.5 |
| 20260501194221 | 50 | 28 | 4.0 | 13.0 | 0.00 | 0.00 | 0.00 | 36 | 1012.7 |
| 20260501193717 | 52 | 0 | 1.0 | 9.0 | 0.00 | 0.00 | 0.00 | 39 | 1012.6 |
| 20260501193216 | 52 | 313 | 3.0 | 9.0 | 0.00 | 0.00 | 0.00 | 34 | 1012.7 |
| 20260501192713 | 52 | 292 | 4.0 | 10.0 | 0.00 | 0.00 | 0.00 | 38 | 1012.7 |
| 20260501192210 | 50 | 25 | 4.0 | 13.0 | 0.00 | 0.00 | 0.00 | 37 | 1012.5 |
| 20260501191707 | 50 | 26 | 4.0 | 11.0 | 0.00 | 0.00 | 0.00 | 35 | 1012.9 |
| 20260501191204 | 51 | 28 | 8.0 | 12.0 | 0.00 | 0.00 | 0.00 | 37 | 1012.9 |
| 20260501190700 | 51 | 18 | 4.0 | 10.0 | 0.00 | 0.00 | 0.00 | 38 | 1012.7 |
| 20260501190155 | 50 | 28 | 4.0 | 17.0 | 0.00 | 0.00 | 0.00 | 37 | 1012.6 |
| 20260501185646 | 50 | 21 | 6.0 | 7.0 | 0.00 | 0.00 | 0.00 | 36 | 1012.7 |
| 20260501185142 | 50 | 333 | 4.0 | 13.0 | 0.00 | 0.00 | 0.00 | 40 | 1012.9 |
| 20260501184639 | 50 | 332 | 4.0 | 16.0 | 0.00 | 0.00 | 0.00 | 39 | 1012.8 |
| 20260501184133 | 50 | 356 | 5.0 | 15.0 | 0.00 | 0.00 | 0.00 | 38 | 1012.6 |
| 20260501183631 | 49 | 331 | 1.0 | 16.0 | 0.00 | 0.00 | 0.00 | 37 | 1012.7 |
| 20260501183127 | 49 | 31 | 10.0 | 20.0 | 0.00 | 0.00 | 0.00 | 38 | 1012.7 |
| 20260501182623 | 51 | 32 | 6.0 | 10.0 | 0.00 | 0.00 | 0.00 | 41 | 1012.5 |
| 20260501182120 | 50 | 50 | 3.0 | 11.0 | 0.00 | 0.00 | 0.00 | 37 | 1012.8 |
| 20260501181618 | 50 | 24 | 8.0 | 11.0 | 0.00 | 0.00 | 0.00 | 39 | 1012.8 |
| 20260501181114 | 50 | 23 | 5.0 | 14.0 | 0.00 | 0.00 | 0.00 | 39 | 1012.7 |
| 20260501180613 | 50 | 32 | 4.0 | 7.0 | 0.00 | 0.00 | 0.00 | 38 | 1012.9 |
| 20260501180109 | 48 | 77 | 3.0 | 6.0 | 0.00 | 0.00 | 0.00 | 40 | 1012.8 |
| 20260501175605 | 49 | 22 | 3.0 | 15.0 | 0.00 | 0.00 | 0.00 | 41 | 1013.0 |
| 20260501175102 | 48 | 30 | 7.0 | 13.0 | 0.00 | 0.00 | 0.00 | 40 | 1012.7 |
| 20260501174559 | 49 | 64 | 4.0 | 17.0 | 0.00 | 0.00 | 0.00 | 39 | 1013.0 |
| 20260501174056 | 49 | 267 | 4.0 | 18.0 | 0.00 | 0.00 | 0.00 | 41 | 1012.9 |
| 20260501173554 | 48 | 357 | 16.0 | 20.0 | 0.00 | 0.00 | 0.00 | 40 | 1013.1 |
| 20260501173050 | 48 | 19 | 3.0 | 12.0 | 0.00 | 0.00 | 0.00 | 44 | 1012.9 |
| 20260501172545 | 48 | 14 | 3.0 | 10.0 | 0.00 | 0.00 | 0.00 | 42 | 1012.9 |
| 20260501172042 | 49 | 11 | 10.0 | 24.0 | 0.00 | 0.00 | 0.00 | 43 | 1012.9 |
| 20260501171538 | 48 | 291 | 4.0 | 15.0 | 0.00 | 0.00 | 0.00 | 45 | 1012.8 |
| 20260501171035 | 48 | 30 | 9.0 | 16.0 | 0.00 | 0.00 | 0.00 | 44 | 1012.9 |
| 20260501170531 | 48 | 28 | 15.0 | 19.0 | 0.00 | 0.00 | 0.00 | 42 | 1013.1 |
| 20260501170029 | 48 | 23 | 13.0 | 17.0 | 0.00 | 0.00 | 0.00 | 43 | 1013.0 |
| 20260501165527 | 49 | 21 | 5.0 | 10.0 | 0.00 | 0.00 | 0.00 | 46 | 1013.0 |
| 20260501165024 | 48 | 42 | 5.0 | 11.0 | 0.00 | 0.00 | 0.00 | 43 | 1012.8 |
| 20260501164521 | 48 | 318 | 7.0 | 12.0 | 0.00 | 0.00 | 0.00 | 45 | 1012.8 |
| 20260501164018 | 48 | 85 | 9.0 | 20.0 | 0.00 | 0.00 | 0.00 | 43 | 1013.0 |
| 20260501163514 | 47 | 33 | 5.0 | 11.0 | 0.00 | 0.00 | 0.00 | 46 | 1013.0 |
| 20260501163011 | 47 | 37 | 4.0 | 11.0 | 0.00 | 0.00 | 0.00 | 44 | 1013.0 |
| 20260501162508 | 46 | 22 | 9.0 | 15.0 | 0.00 | 0.00 | 0.00 | 44 | 1012.9 |
| 20260501162004 | 47 | 22 | 10.0 | 13.0 | 0.00 | 0.00 | 0.00 | 47 | 1013.1 |
| 20260501161502 | 47 | 32 | 7.0 | 12.0 | 0.00 | 0.00 | 0.00 | 46 | 1013.1 |
| 20260501160958 | 47 | 34 | 5.0 | 14.0 | 0.00 | 0.00 | 0.00 | 49 | 1012.8 |
| 20260501160455 | 47 | 20 | 8.0 | 12.0 | 0.00 | 0.00 | 0.00 | 46 | 1013.0 |
| 20260501155952 | 46 | 0 | 9.0 | 12.0 | 0.00 | 0.00 | 0.00 | 48 | 1013.3 |
| 20260501155449 | 46 | 35 | 10.0 | 15.0 | 0.00 | 0.00 | 0.00 | 48 | 1013.2 |
| 20260501154945 | 46 | 5 | 10.0 | 13.0 | 0.00 | 0.00 | 0.00 | 49 | 1013.0 |
| 20260501154443 | 46 | 15 | 4.0 | 14.0 | 0.00 | 0.00 | 0.00 | 49 | 1013.1 |
| 20260501153940 | 46 | 20 | 4.0 | 17.0 | 0.00 | 0.00 | 0.00 | 50 | 1013.1 |
| 20260501153438 | 45 | 1 | 10.0 | 14.0 | 0.00 | 0.00 | 0.00 | 50 | 1013.0 |
| 20260501152933 | 44 | 345 | 3.0 | 13.0 | 0.00 | 0.00 | 0.00 | 50 | 1013.1 |
| 20260501152431 | 45 | 36 | 6.0 | 10.0 | 0.00 | 0.00 | 0.00 | 50 | 1013.3 |
| 20260501151927 | 44 | 23 | 8.0 | 15.0 | 0.00 | 0.00 | 0.00 | 50 | 1013.0 |
| 20260501151424 | 45 | 21 | 8.0 | 11.0 | 0.00 | 0.00 | 0.00 | 50 | 1013.2 |
| 20260501150915 | 46 | 20 | 3.0 | 6.0 | 0.00 | 0.00 | 0.00 | 50 | 1013.0 |
| 20260501150411 | 44 | 26 | 10.0 | 16.0 | 0.00 | 0.00 | 0.00 | 51 | 1013.1 |
| 20260501145907 | 45 | 70 | 3.0 | 11.0 | 0.00 | 0.00 | 0.00 | 50 | 1013.1 |
| 20260501145404 | 44 | 47 | 5.0 | 11.0 | 0.00 | 0.00 | 0.00 | 50 | 1013.0 |
| 20260501144901 | 44 | 12 | 5.0 | 12.0 | 0.00 | 0.00 | 0.00 | 51 | 1013.1 |
| 20260501144351 | 45 | 26 | 9.0 | 12.0 | 0.00 | 0.00 | 0.00 | 49 | 1013.0 |
| 20260501143847 | 44 | 84 | 5.0 | 9.0 | 0.00 | 0.00 | 0.00 | 53 | 1012.9 |
| 20260501143344 | 44 | 25 | 5.0 | 13.0 | 0.00 | 0.00 | 0.00 | 54 | 1013.1 |
| 20260501142841 | 44 | 14 | 5.0 | 12.0 | 0.00 | 0.00 | 0.00 | 51 | 1013.1 |
| 20260501142338 | 44 | 354 | 1.0 | 7.0 | 0.00 | 0.00 | 0.00 | 53 | 1013.2 |
| 20260501141834 | 43 | 66 | 8.0 | 9.0 | 0.00 | 0.00 | 0.00 | 51 | 1013.0 |